Terra Bella
DateTemperatureDew Point
08/31 - 08:45 AM79.2°54.8°
08/31 - 08:30 AM78.1°54.1°
08/31 - 08:15 AM76.7°53.4°
08/31 - 08:00 AM75.3°54.3°
08/31 - 07:45 AM73.6°55.7°
08/31 - 07:30 AM71.2°56.8°
08/31 - 07:15 AM67.0°54.7°
08/31 - 07:00 AM61.6°54.4°
08/31 - 06:45 AM57.6°50.7°
08/31 - 06:30 AM56.8°49.4°
08/31 - 06:15 AM56.5°49.3°
08/31 - 06:00 AM56.9°48.8°
08/31 - 05:45 AM57.5°48.0°
08/31 - 05:30 AM58.0°47.6°
08/31 - 05:15 AM58.0°47.0°
08/31 - 05:00 AM58.0°47.0°
08/31 - 04:45 AM58.2°47.7°
08/31 - 04:30 AM58.7°47.6°
08/31 - 04:15 AM59.1°46.5°
08/31 - 04:00 AM59.3°47.7°
08/31 - 03:45 AM59.7°47.7°
08/31 - 03:30 AM60.2°47.2°
08/31 - 03:15 AM60.6°46.5°
08/31 - 03:00 AM60.7°46.6°
08/31 - 02:45 AM61.2°47.2°
08/31 - 02:30 AM61.6°47.9°
08/31 - 02:15 AM61.9°47.1°
08/31 - 02:00 AM62.2°47.3°
08/31 - 01:45 AM62.5°47.6°
08/31 - 01:30 AM62.7°46.7°
08/31 - 01:15 AM62.9°48.5°
08/31 - 01:00 AM63.9°48.2°
08/31 - 12:45 AM64.3°48.0°
08/31 - 12:30 AM64.8°49.2°
08/31 - 12:15 AM65.5°49.3°
08/31 - 12:00 AM66.5°50.2°
08/30 - 11:45 PM67.7°49.9°
08/30 - 11:30 PM68.2°49.8°
08/30 - 11:15 PM67.6°50.5°
08/30 - 11:00 PM66.9°52.6°
08/30 - 10:45 PM67.2°54.3°
08/30 - 10:30 PM67.5°55.4°
08/30 - 10:15 PM68.1°56.4°
08/30 - 10:00 PM68.2°58.0°
08/30 - 09:45 PM68.7°58.4°
08/30 - 09:30 PM69.4°58.7°
08/30 - 09:15 PM70.0°58.7°
08/30 - 09:00 PM70.5°58.1°
08/30 - 08:45 PM71.5°59.6°
08/30 - 08:30 PM72.5°59.1°
08/30 - 08:15 PM73.9°60.4°
08/30 - 08:00 PM75.7°59.6°
08/30 - 07:45 PM77.7°59.1°
08/30 - 07:30 PM79.8°57.9°
08/30 - 07:15 PM82.2°57.3°
08/30 - 07:00 PM84.9°57.5°
08/30 - 06:45 PM87.4°56.9°
08/30 - 06:30 PM88.4°56.6°
08/30 - 06:15 PM89.8°55.6°
08/30 - 06:00 PM91.1°55.3°
08/30 - 05:45 PM93.7°56.2°
08/30 - 05:30 PM98.0°57.4°
08/30 - 05:15 PM98.0°57.1°
08/30 - 05:00 PM97.5°56.2°
08/30 - 04:45 PM97.7°55.7°
08/30 - 04:30 PM98.7°56.8°
08/30 - 04:15 PM99.1°56.9°
08/30 - 04:00 PM98.4°56.6°
08/30 - 03:45 PM97.9°56.1°
08/30 - 03:30 PM97.7°55.9°
08/30 - 03:15 PM96.7°55.3°
08/30 - 03:00 PM95.1°54.7°
08/30 - 02:45 PM94.3°53.4°
08/30 - 02:30 PM94.1°53.1°
08/30 - 02:15 PM93.0°54.6°
08/30 - 02:00 PM92.3°54.9°
08/30 - 01:45 PM91.6°55.0°
08/30 - 01:30 PM91.9°55.2°
08/30 - 01:15 PM90.9°55.8°
08/30 - 01:00 PM90.4°56.1°
08/30 - 12:45 PM89.2°54.9°
08/30 - 12:30 PM88.5°54.4°
08/30 - 12:15 PM86.9°54.0°
08/30 - 12:00 PM87.3°54.2°
08/30 - 11:45 AM86.6°56.3°
08/30 - 11:30 AM86.0°57.9°
08/30 - 11:15 AM85.3°59.4°
08/30 - 11:00 AM84.1°60.0°
08/30 - 10:45 AM82.8°60.1°
08/30 - 10:30 AM81.8°60.2°
08/30 - 10:15 AM81.1°59.6°
08/30 - 10:00 AM81.3°59.2°
08/30 - 09:45 AM81.7°60.0°
08/30 - 09:30 AM80.2°58.8°
08/30 - 09:15 AM79.2°59.1°
08/30 - 09:00 AM78.6°60.2°
08/30 - 08:45 AM76.7°59.3°
08/30 - 08:30 AM74.9°58.1°
08/30 - 08:15 AM73.0°58.7°
08/30 - 08:00 AM71.1°59.6°
08/30 - 07:45 AM69.1°59.2°
08/30 - 07:30 AM67.4°59.6°
08/30 - 07:15 AM65.3°60.3°
08/30 - 07:00 AM62.1°58.3°
08/30 - 06:45 AM60.3°56.8°
08/30 - 06:30 AM59.4°56.0°
08/30 - 06:15 AM58.7°55.7°
08/30 - 06:00 AM59.0°56.2°
08/30 - 05:45 AM59.1°56.6°
08/30 - 05:30 AM59.0°56.7°
08/30 - 05:15 AM59.0°56.9°
08/30 - 05:00 AM59.3°57.1°
08/30 - 04:45 AM59.7°57.2°
08/30 - 04:30 AM59.7°57.0°
08/30 - 04:15 AM60.4°57.8°
08/30 - 04:00 AM60.7°57.8°
08/30 - 03:45 AM60.9°58.3°
08/30 - 03:30 AM60.9°58.7°
08/30 - 03:15 AM61.5°59.3°
08/30 - 03:00 AM62.0°59.2°
08/30 - 02:45 AM62.5°59.0°
08/30 - 02:30 AM62.9°58.8°
08/30 - 02:15 AM63.2°58.8°
08/30 - 02:00 AM63.7°58.6°
08/30 - 01:45 AM64.3°58.1°
08/30 - 01:30 AM64.5°57.6°
08/30 - 01:15 AM65.0°58.3°
08/30 - 01:00 AM66.0°58.5°
08/30 - 12:45 AM66.4°58.3°
08/30 - 12:30 AM66.5°59.1°
08/30 - 12:15 AM67.2°58.5°
08/30 - 12:00 AM67.5°58.0°
08/29 - 11:45 PM67.7°58.8°
08/29 - 11:30 PM68.3°59.2°
08/29 - 11:15 PM68.7°59.1°
08/29 - 11:00 PM68.8°59.5°
08/29 - 10:45 PM69.7°59.7°
08/29 - 10:30 PM70.6°59.1°
08/29 - 10:15 PM71.7°58.4°
08/29 - 10:00 PM73.4°58.2°
08/29 - 09:45 PM72.7°57.4°
08/29 - 09:30 PM71.1°58.5°
08/29 - 09:15 PM71.2°59.9°
08/29 - 09:00 PM72.1°60.6°
08/29 - 08:45 PM72.8°60.9°
08/29 - 08:30 PM73.3°61.4°
08/29 - 08:15 PM74.3°62.7°
08/29 - 08:00 PM74.9°60.9°
08/29 - 07:45 PM75.8°62.8°
08/29 - 07:30 PM77.1°63.9°
08/29 - 07:15 PM78.6°64.5°
08/29 - 07:00 PM80.9°63.2°
08/29 - 06:45 PM82.7°60.3°
08/29 - 06:30 PM84.7°60.8°
08/29 - 06:15 PM86.6°60.6°
08/29 - 06:00 PM88.6°59.9°
08/29 - 05:45 PM91.4°60.2°
08/29 - 05:30 PM95.5°61.2°
08/29 - 05:15 PM96.7°61.6°
08/29 - 05:00 PM96.4°61.2°
08/29 - 04:45 PM97.1°61.9°
08/29 - 04:30 PM97.8°62.1°
08/29 - 04:15 PM97.5°62.0°
08/29 - 04:00 PM97.2°61.2°
08/29 - 03:45 PM96.4°60.4°
08/29 - 03:30 PM95.5°59.2°
08/29 - 03:15 PM93.2°59.6°
08/29 - 03:00 PM90.6°59.3°
08/29 - 02:45 PM90.4°57.9°
08/29 - 02:30 PM89.4°59.0°
08/29 - 02:15 PM87.4°59.3°
08/29 - 02:00 PM87.1°60.3°
08/29 - 01:45 PM86.9°59.7°
08/29 - 01:30 PM86.2°61.9°
08/29 - 01:15 PM86.4°63.0°
08/29 - 01:00 PM87.3°63.3°
08/29 - 12:45 PM88.9°60.5°
08/29 - 12:30 PM88.8°60.2°
08/29 - 12:15 PM86.4°60.3°
08/29 - 12:00 PM84.9°59.4°
08/29 - 11:45 AM84.1°60.2°
08/29 - 11:30 AM81.3°60.0°
08/29 - 11:15 AM80.4°60.0°
08/29 - 11:00 AM80.8°61.4°
08/29 - 10:45 AM81.1°61.8°
08/29 - 10:30 AM81.4°63.0°
08/29 - 10:15 AM80.4°62.6°
08/29 - 10:00 AM79.8°63.5°
08/29 - 09:45 AM78.7°63.6°
08/29 - 09:30 AM78.8°64.4°